Regional Weather Roundup
Issued by NWS Sterling, VA

Home | Current Version | Previous Version | Graphics & Text | Print | Product List | Glossary On
Versions: 1 2 3 4 5 6 7 8 9 10 11 12 13 14 15 16 17 18 19 20 21 22 23 24 25 26 27 28 29 30 31 32 33 34 35 36 37 38 39 40 41 42 43 44 45 46 47 48 49 50
000
ASUS41 KLWX 252010
RWRLWX

REGIONAL WEATHER ROUNDUP
NATIONAL WEATHER SERVICE BALTIMORE MD/WASHINGTON DC
400 PM EDT FRI JUL 25 2014

Note: "FAIR" indicates few or no clouds below 12,000 feet
with no significant weather and/or obstructions to visibility.
 TC=TEMPERATURE CELSIUS

 * =Non NWS site. Station does not report precipitation (e.g. rain,
    snow, etc.), thunder, or fog.

DCZ001-MDZ009-015-VAZ040>042-051-053>054-252100-
WASHINGTON METRO
  /KDAA//-FT BELVOIR

CITY           SKY/WX    TMP DP  RH WIND       PRES   REMARKS
WASHINGTON NAT MOSUNNY   84  54  35 NE6       30.00F
DULLES         MOSUNNY   82  51  34 NW10      30.01S
ANDREWS AFB    SUNNY     82  50  32 W7        30.00F
QUANTICO       MOSUNNY   82  56  40 VRB6      30.01F
COLLEGE PARK*  SUNNY     82  50  32 CALM      30.00S
LEESBURG*      SUNNY     81  59  47 CALM      30.02F
GAITHERSBURG*  SUNNY     79  54  41 W7        30.05S

$$

MDZ006>007-011-014-252100-
BALTIMORE METRO

CITY           SKY/WX    TMP DP  RH WIND       PRES   REMARKS
BWI AIRPORT    MOSUNNY   82  51  34 N6        30.00S
MD SCIENCE CTR   N/A     82  50  32 MISG      30.00S
MARTIN STATE   SUNNY     81  52  36 CALM      30.01F
ANNAPOLIS      SUNNY     78  56  46 SE12      30.00S
FORT MEADE*    SUNNY     79  52  38 CALM      30.02F

$$

MDZ012-015-019>023-252100-
MARYLAND EASTERN SHORE

CITY           SKY/WX    TMP DP  RH WIND       PRES   REMARKS
OCEAN CITY     SUNNY     76  65  68 E9        30.00F
SALISBURY      NOT AVBL
BAY BRIDGE AP*   N/A     79  46  31 N3        30.00F
CAMBRIDGE*     SUNNY     79  50  36 N3        30.00F
EASTON*        SUNNY     81  55  41 NE6       30.04F

$$

MDZ017>025-252100-
SOUTHERN MARYLAND

CITY           SKY/WX    TMP DP  RH WIND       PRES   REMARKS
PATUXENT RIVER MOSUNNY   78  57  48 E8        30.00F
ST INIGOES     SUNNY     80  59  48 VRB6      30.00F
LEONARDTOWN*   NOT AVBL

$$

MDZ003>005-252100-
NORTH CENTRAL MARYLAND

CITY           SKY/WX    TMP DP  RH WIND       PRES   REMARKS
FREDERICK*     SUNNY     82  57  42 CALM      30.04S
HAGERSTOWN APT SUNNY     80  53  39 CALM      30.01F
WESTMINSTER*   SUNNY     79  61  53 SW6       30.02S

$$

MDZ501>502-252100-
WESTERN MARYLAND

CITY           SKY/WX    TMP DP  RH WIND       PRES   REMARKS
OAKLAND*       MOSUNNY   70  46  43 W6        30.12S
CUMBERLAND*    MOSUNNY   86  54  32 CALM      30.05R

$$

VAZ025>031-252100-
SHENANDOAH VALLEY

CITY           SKY/WX    TMP DP  RH WIND       PRES   REMARKS
WINCHESTER*    PTSUNNY   81  55  41 SE8       30.01S
STAUNTON*      MOSUNNY   80  60  50 SE6       30.04F

$$

WVZ021-048>050-054>055-252100-
EASTERN WEST VIRGINIA PANHANDLE

CITY           SKY/WX    TMP DP  RH WIND       PRES   REMARKS
MARTINSBURG    SUNNY     81  51  35 CALM      30.01F
PETERSBURG*    MOSUNNY   81  45  28 SE8       30.01R

$$

VAZ036>039-050-252100-
CENTRAL FOOTHILLS

CITY           SKY/WX    TMP DP  RH WIND       PRES   REMARKS
CHARLOTTESVILL MOSUNNY   80  61  52 S6        30.00F
ORANGE*        MOSUNNY   82  59  44 S6        30.02F

$$

VAZ055>057-252100-
NORTH AND CENTRAL PIEDMONT

CITY           SKY/WX    TMP DP  RH WIND       PRES   REMARKS
FREDERICKSBRG* MOSUNNY   81  58  46 CALM      30.00S
STAFFORD*      MOSUNNY   82  57  42 NW3       30.04F

$$

NCZ024-NYZ072-PAZ021-071-VAZ022-071-252100-
OTHER REGIONAL OBSERVATIONS

CITY           SKY/WX    TMP DP  RH WIND       PRES   REMARKS
PHILADELPHIA   MOSUNNY   82  53  36 S6        29.98F
PITTSBURGH     PTSUNNY   77  40  26 W9        30.04F
ROANOKE        PTSUNNY   80  62  54 SE8G17    30.04F
RICHMOND       PTSUNNY   84  56  38 CALM      30.01F
RALEIGH        PTSUNNY   81  63  54 VRB5      30.02F

$$

ANZ530>537-252100-
MARINE OBSERVATIONS

STATION/POSITION TIME  TEMP    WIND        PRES
                       AIR SEA DIR/SP/G
                 (UTC) (F)     (DEG/KT/KT) (MB)
THOMAS PT LIGHT  2000   77 79  100/  4/  5 1016.4F
BALT KEY BRIDGE  2000   78      80/  3/  4 1015.5F
COVE POINT       2000   75      60/  6/  7 1015.8F
LEWISETTA        2000   79 79  320/  6/  8 1015.8F
SOLOMONS ISLAND  2000      81                N/A
PINEY POINT      2000          300/  7/  9   N/A

$$




USA.gov is the U.S. government's official web portal to all federal, state and local government web resources and services.